Regional Weather Roundup
Issued by NWS

Home | Current Version | Previous Version | Graphics & Text | Print | Product List | Glossary On
Versions: 1 2 3 4 5 6 7 8 9 10 11 12 13 14 15 16 17 18 19 20 21 22 23 24 25 26 27 28 29 30 31 32 33 34 35 36 37 38 39 40 41 42 43 44 45 46 47 48 49 50
000
ASUS43 KIND 171409
RWRIN

WEATHER ROUNDUP FOR INDIANA
NATIONAL WEATHER SERVICE INDIANAPOLIS IN
1000 AM EDT TUE OCT 17 2017

NOTE: "FAIR" INDICATES FEW OR NO CLOUDS BELOW 12,000 FEET WITH NO
SIGNIFICANT WEATHER AND/OR OBSTRUCTIONS TO VISIBILITY.

* - STATION DOES NOT REPORT WEATHER SUCH AS PRECIPITATION OR FOG.

+ - STATION NOT QUALITY CONTROLLED BY THE NATIONAL WEATHER SERVICE.
    USE DATA WITH CAUTION...ESPECIALLY DEWPOINT AND RELATIVE
    HUMIDITY OBSERVATIONS.

INZ001>003-010>013-019-020-171500-
NORTHWEST INDIANA

CITY           SKY/WX    TMP DP  RH WIND       PRES   REMARKS
GARY /AIRPORT/ MOSUNNY   54  37  54 SW12      30.23F
KNOX *+        SUNNY     52  39  62 SW13      30.27S
LA PORTE +     SUNNY     50  41  71 SW10G17   30.25S
MICHIGAN CITY+ SUNNY     52  41  66 SW13      30.24S
MONTICELLO +   SUNNY     52  38  60 SW14      30.30S
RENSSELAER +   SUNNY     52  36  54 SW12      30.29S
VALPARAISO     SUNNY     52  42  69 SW13      30.26S

$$

LMZ046-743>745-171500-
SOUTHERN LAKE MICHIGAN

STATION/POSITION TIME  TEMP    WIND        PRES    WAVE
                       AIR SEA DIR/SP/G            HT
                 (UTC) (F)     (DEG/KT/KT) (MB)    (FT)
BURNS HARBOR     1340   52     200/ 12/ 15 1024.0R
MICHIGAN CITY    1340   52     190/ 14/ 17   N/A
5NW MICH CITY    1350   55 57  220/ 17/ 23   N/A     3

$$

INZ004-005-014>016-021>024-171500-
NORTH CENTRAL INDIANA

CITY           SKY/WX    TMP DP  RH WIND       PRES   REMARKS
ELKHART        SUNNY     50  39  66 SW9       30.24F
GOSHEN         SUNNY     51  39  63 SW14      30.26S
LOGANSPORT +   SUNNY     52  39  62 SW15      30.31S
SOUTH BEND     SUNNY     50  40  68 SW17      30.24F
WARSAW +       SUNNY     52  37  58 SW9       30.27F

$$

INZ006>009-017-018-025>027-171500-
NORTHEAST INDIANA

CITY           SKY/WX    TMP DP  RH WIND       PRES   REMARKS
AUBURN +       SUNNY     52  37  58 SW10      30.28S
FORT WAYNE     MOSUNNY   52  40  63 SW12      30.31R
HUNTINGTON +   SUNNY     53  38  58 W9        30.31R
KENDALLVILLE + SUNNY     51  40  65 SW13      30.27S

$$

INZ028-029-035-036-043>045-051>053-171500-
WEST CENTRAL INDIANA

CITY           SKY/WX    TMP DP  RH WIND       PRES   REMARKS
CRAWFORDSVL +  SUNNY     50  41  71 SW9       30.33F
GREENCASTLE +  SUNNY     52  37  58 CALM      30.36S
LAFAYETTE      NOT AVBL
TERRE HAUTE    SUNNY     50  43  77 CALM      30.37R

$$

INZ030>032-037>040-046>048-054>057-064-065-171500-
CENTRAL INDIANA

CITY           SKY/WX    TMP DP  RH WIND       PRES   REMARKS
CP ATTERBURY + SUNNY     48  43  81 CALM      30.38R
COLUMBUS       MOSUNNY   46  41  81 CALM      30.38S
FRANKFORT +    PTSUNNY   55  41  58 SW10      30.34R
GREENWOOD *+   SUNNY     54  44  69 SW5       30.37S
INDIANAPOLIS   MOSUNNY   51  40  65 SW8       30.36S
-EAGLE CREEK   SUNNY     51  39  63 S7        30.34S
KOKOMO +       SUNNY     55  39  54 SW14      30.32S
MT COMFORT *+  SUNNY     50  45  81 SW8       30.36R
SHELBYVILLE    SUNNY     51  42  71 SW6       30.36R
ZIONSVILLE +   SUNNY     52  39  60 SW9       30.34S

$$

INZ033-034-041-042-049-050-058-059-171500-
EAST CENTRAL INDIANA

CITY           SKY/WX    TMP DP  RH WIND       PRES   REMARKS
MUNCIE         SUNNY     55  38  52 SW8       30.33S
RICHMOND +     SUNNY     52  37  58 SW9       30.36F

$$

INZ060-061-067>069-081>083-085>088-171500-
SOUTHWEST INDIANA

CITY           SKY/WX    TMP DP  RH WIND       PRES   REMARKS
EVANSVILLE     SUNNY     48  45  89 CALM      30.40R
HUNTINGBURG +  SUNNY     50  44  80 MISG      30.40R
WASHINGTON +   SUNNY     50  42  74 S6        30.38S

$$

INZ062-063-066-070>080-084-089>092-171500-
SOUTH CENTRAL AND SOUTHEAST INDIANA

CITY           SKY/WX    TMP DP  RH WIND       PRES   REMARKS
BEDFORD +      SUNNY     48  41  76 S5        30.38R
BLOOMINGTON    SUNNY     53  38  56 SW8       30.37S
MADISON *+     SUNNY     50  45  81 S3        30.41S
NORTH VERNON + SUNNY     48  41  76 S3        30.39R
SEYMOUR +      SUNNY     48  45  87 CALM      30.39S

$$




USA.gov is the U.S. government's official web portal to all federal, state and local government web resources and services.